カタログに戻る

STARLINK-35040

運用中通信VLEO
NORAD 65480·PAYLOAD·🇺🇸 United States

打ち上げ Sep 3, 2025 から Cape Canaveral Space Force Station

Loading…

次のパス (今後24時間)

TLE

最新Source: CelesTrak SupGP

元期: Sep 15, 2026, 03:51 UTC

1 65480C 25195Y   26258.16090278 -.00019937  00000+0 -58924-3 0  2580
2 65480  53.1576  94.4057 0001031  60.1420 326.9091 15.34390504    14

AllMySatでSTARLINK-35040をリアルタイム追跡

Download on the App Store